Hourly Weather Roundup
Issued by NWS Central Illinois

Home | Current Version | Previous Version | Text Only | Print | Product List | Glossary On
Versions: 1 2 3 4 5 6 7 8 9 10 11 12 13 14 15 16 17 18 19 20 21 22 23 24 25 26 27 28 29 30 31 32 33 34 35 36 37 38 39 40 41 42 43 44 45 46 47 48 49 50
366
NZUS43 KILX 281510
HWRILX

AREA WEATHER ROUNDUP
NATIONAL WEATHER SERVICE, LINCOLN IL
1000 AM CDT THU APR 28 2016


CITY           SKY/WX    TMP DP  RH WIND       PRES   REMARKS
BLOOMINGTON    CLOUDY    53  53 100 NE6       29.83S FOG
CHAMPAIGN      CLOUDY    62  57  83 SW8       29.81R
DANVILLE       CLOUDY    56  55  96 E5        29.79R FOG
DECATUR        MOSUNNY   64  55  72 W9        29.81S
EFFINGHAM      PTSUNNY   64  62  93 W8        29.84R
FLORA          SUNNY     69  57  64 W12       29.83R
GALESBURG      CLOUDY    58  54  86 SE5       29.81R
JACKSONVILLE   MOSUNNY   62  54  74 SW14G21   29.82R
LACON          CLOUDY    50  47  91 E7        29.83R FOG
LAWRENCEVILLE  PTSUNNY   70  64  81 SW7       29.81S
LITCHFIELD     MOSUNNY   64  53  66 SW14      29.83R
$$


CITY           SKY/WX    TMP DP  RH WIND       PRES   REMARKS
LINCOLN        SUNNY     62  56  80 CALM      29.81R
MACOMB         CLOUDY    55  52  88 W10       29.84R
MATTOON        CLOUDY    62  57  83 W7        29.81R
MT CARMEL AP   NOT AVBL
OLNEY-NOBLE AP MOSUNNY   64  59  82 W8        29.83R
PARIS          CLOUDY    65  61  87 S10       29.81R
PEORIA         CLOUDY    55  51  86 NE7       29.82R FOG
PONTIAC        CLOUDY    51  50  98 NE5       29.85S FOG
RANTOUL        CLOUDY    58  56  92 CALM      29.82R FOG
ROBINSON       PTSUNNY   66  62  87 SW9       29.81S
SPRINGFIELD    PTSUNNY   66  51  58 W8        29.81S
TAYLORVILLE    SUNNY     64  54  68 W9        29.81S
$$

...REGIONAL REPORTS...


CITY           SKY/WX    TMP DP  RH WIND       PRES   REMARKS
CHICAGO O`HARE CLOUDY    45  40  82 NE12      29.87R
KANKAKEE       CLOUDY    50  47  90 E8        29.85R FOG
MOLINE         CLOUDY    50  46  86 E14       29.82R FOG
MOUNT STERLING PTSUNNY   56  50  79 W9        29.83R
MOUNT VERNON   SUNNY     68  54  60 W9        29.85R
PITTSFIELD     SUNNY     59  49  68 W13       29.84R
QUINCY         MOSUNNY   56  47  71 W12       29.83R
ROCKFORD       CLOUDY    44  40  85 E9        29.90R
$$


CITY           SKY/WX    TMP DP  RH WIND       PRES   REMARKS
BURLINGTON     CLOUDY    55  50  83 W10       29.81R
CEDAR RAPIDS   CLOUDY    48  48 100 E13       29.80S FOG
DES MOINES     CLOUDY    51  44  77 NW3       29.81R
KIRKSVILLE     CLOUDY    52  44  74 SW13      29.85R
OTTUMWA        CLOUDY    51  45  79 W5        29.81R
ST LOUIS       MOSUNNY   65  49  56 SW13      29.85R
$$


CITY           SKY/WX    TMP DP  RH WIND       PRES   REMARKS
TERRE HAUTE    MOSUNNY   68  60  75 S9        29.79F
EVANSVILLE     SUNNY     69  59  70 SW6       29.84R
INDIANAPOLIS   PTSUNNY   60  56  86 CALM      29.80R
LAFAYETTE      CLOUDY    52  49  89 SE7       29.82S FOG
MADISON        LGT RAIN  41  37  86 E13       29.92R FOG     WCI  34
MILWAUKEE      CLOUDY    40  32  73 E18       29.94R WCI  31
$$






USA.gov is the U.S. government's official web portal to all federal, state and local government web resources and services.